Regional Weather Roundup
Issued by NWS Boston, MA

Home | Current Version | Previous Version | Text Only | Print | Product List | Glossary On
Versions: 1 2 3 4 5 6 7 8 9 10 11 12 13 14 15 16 17 18 19 20 21 22 23 24 25 26 27 28 29 30 31 32 33 34 35 36 37 38 39 40 41 42 43 44 45 46 47 48 49 50
336
ASUS41 KBOX 241410
RWRBOX

REGIONAL WEATHER ROUNDUP
NATIONAL WEATHER SERVICE TAUNTON MA
1000 AM EDT TUE MAY 24 2016

NOTE:  "FAIR" INDICATES FEW OR NO CLOUDS BELOW 12,000 FEET WITH NO
SIGNIFICANT WEATHER AND/OR OBSTRUCTIONS TO VISIBILITY.  THE FOLLOWING
OBSERVATION LOCATIONS DO NOT REPORT PRESENT WEATHER...PROVINCETOWN...
SMITHFIELD...BLOCK ISLAND...KEENE...AND OXFORD.

MAZALL-241500-
EASTERN MASSACHUSETTS

CITY           SKY/WX    TMP DP  RH WIND       PRES   REMARKS
BOSTON         CLOUDY    53  52  96 NE13      29.93F FOG
BEVERLY        CLOUDY    53  50  89 NE9       29.93S FOG
LAWRENCE       LGT RAIN  55  52  89 NE9       29.95S FOG
BEDFORD        CLOUDY    56  54  93 NE9       29.91F FOG
BLUE HILL        N/A     51  51 100 NE13G21   29.89F
NORWOOD        CLOUDY    55  52  89 NE10      29.90F
MARSHFIELD     FOG       52  52 100 NE8G14    29.90F VSB 3/4
PLYMOUTH       CLOUDY    52  51  97 NE14      29.89S FOG
TAUNTON        CLOUDY    56  51  84 NE9       29.88S
NEW BEDFORD    CLOUDY    54  53  97 NE10      29.87S FOG
$$

MAZALL-241500-
CAPE COD AND THE ISLANDS

CITY           SKY/WX    TMP DP  RH WIND       PRES   REMARKS
FALMOUTH       FOG       54  54 100 NE8       29.87S VSB 1/2
HYANNIS        FOG       56  56 100 S6        29.86R VSB 3/4
CHATHAM        CLOUDY    56  56 100 S8        29.89R FOG
PROVINCETOWN   LGT RAIN  53  52  96 E15       29.89F VSB 3/4
NANTUCKET      LGT RAIN  55  53  93 S13       29.87S VSB 1
MARTHAS VNYRD  FOG       55  55 100 SE9       29.86R VSB 1
$$

MAZALL-241500-
CENTRAL AND WESTERN MASSACHUSETTS

CITY           SKY/WX    TMP DP  RH WIND       PRES   REMARKS
WORCESTER      NOT AVBL
FITCHBURG      CLOUDY    58  54  86 VRB5      29.93F
ORANGE         CLOUDY    58  55  90 N8        29.92F
SPRINGFIELD    CLOUDY    59  55  88 N9        29.89F
WESTFIELD      LGT RAIN  58  55  90 N10       29.91S
NORTH ADAMS    LGT RAIN  57  55  93 N3        29.94S
PITTSFIELD     CLOUDY    56  53  90 CALM      29.93R
$$

RIZALL-241500-
RHODE ISLAND

CITY           SKY/WX    TMP DP  RH WIND       PRES   REMARKS
PROVIDENCE     DRIZZLE   56  53  90 N14       29.88F FOG
NEWPORT        CLOUDY    55  52  89 N12       29.86S FOG
BLOCK ISLAND   LGT RAIN  54  54 100 N12G20    29.86S FOG
SMITHFIELD       N/A    N/A N/A N/A MISG        N/A
WESTERLY       CLOUDY    59  53  80 N7        29.87R HAZE
$$

CTZALL-241500-
CONNECTICUT

CITY           SKY/WX    TMP DP  RH WIND       PRES   REMARKS
BRADLEY INTL   LGT RAIN  61  57  87 N13       29.89F
HARTFORD       CLOUDY    63  57  81 N12       29.89S
BRIDGEPORT     CLOUDY    63  57  81 N5        29.89S
DANBURY        LGT RAIN  63  57  81 NW5       29.91F
GROTON         CLOUDY    59  57  93 NE12      29.86S
NEW HAVEN      LGT RAIN  61  57  87 N8        29.88S
CHESTER        CLOUDY    61  57  88 NE8G15    29.87F
MERIDEN          N/A     63  56  78 N10       29.88F
WILLIMANTIC    CLOUDY    61  53  75 N12G21    29.88F
OXFORD         CLOUDY    57  54  88 N12       29.91S
$$

MEZ002-015-021-024-NHZ003-005-008-011-012-014-VTZ005-008-241500-
NORTHERN NEW ENGLAND

CITY           SKY/WX    TMP DP  RH WIND       PRES   REMARKS
PORTLAND ME    LGT RAIN  58  55  90 NE10      29.96S FOG
BANGOR ME      CLOUDY    65  54  67 E7        30.00S
CONCORD NH     LGT RAIN  58  55  90 CALM      29.95R
MANCHESTER NH  LGT RAIN  57  54  89 NE8       29.93S
NASHUA NH      LGT RAIN  57  55  93 N7        29.94S
PORTSMOUTH NH  CLOUDY    54  52  94 NE10      29.94R FOG
JAFFREY NH     LGT RAIN  55  53  93 N5        29.93F
KEENE NH       CLOUDY    55  54  94 N3        29.93F
BURLINGTON VT  PTSUNNY   67  44  43 CALM      29.92S
MT. WASHINGTON MOSUNNY   45  37  76 E32         N/A
$$

NYZ052-076-241500-
EASTERN NEW YORK

CITY           SKY/WX    TMP DP  RH WIND       PRES   REMARKS
ALBANY         LGT RAIN  61  55  81 CALM      29.95R
NEW YORK CITY  LGT RAIN  62  62 100 NE6       29.92R
$$

ANZALL-241500-
MARINE OBSERVATIONS

STATION/POSITION TIME  TEMP    WIND        PRES    VSBY  WAVE
                       AIR SEA DIR/SP/G                  HT/PER
                 (UTC) (F)     (DEG/KT/KT) (MB)    (MI)  (FT/S)
BOSTON BUOY      1350   51 54   40/ 12/ 16 1012.5F         4/10
BUZZARDS BAY     1300   52      40/ 19/ 21 1011.0R
NANTUCKET SOUND  1350   55 54  160/ 12/ 14 1011.2R         1/ 3
MASS BAY-STELLWA 1304   49 53                N/A    1 3/4  4/ 9
ISLE OF SHOALS   1400   50      60/ 14/ 15 1013.8R
S OF BLOCK IS    1325      53                N/A           5/ 9
$$

......................KEY.........................
  SKY/WX - SKY CONDITION/PRESENT WEATHER
  TMP    - TEMPERATURE IN FAHRENHEIT
  DWPT   - DEWPOINT IN FAHRENHEIT
  RH     - RELATIVE HUMIDITY IN PERCENT
  WIND   - DIRECTION AND SPEED IN MPH
  PRES   - MEAN SEA LEVEL PRESSURE IN INCHES OF HG
  WCI    - WIND CHILL INDEX
  VSB    - VISIBILITY IN MILES
  HX     - HEAT INDEX
  TC     - TEMPERATURE IN CELSIUS
  VRB    - VARIABLE WIND DIRECTION
  N/A    - NOT AVAILABLE




USA.gov is the U.S. government's official web portal to all federal, state and local government web resources and services.